sat.trackr.live / text

‹ back to catalog

STARLINK-11497 [DTC]

NORAD 62470 · 2024-254J

PAYLOAD ACTIVE UNKNOWN

§ Identity

Operator
Country
US
Launch date
2024-12-31
Launch site
AFETR
Launch vehicle
Mass (kg)
RCS (m²)

Purposes: comms

External: N2YO · Heavens-Above · Gunter

§ Orbital elements

Epoch: 2026-09-20T23:24:39.509856Z

Period
91.67 min
Inclination
43.0004°
Eccentricity
0.0004170
Mean motion
15.70874141 rev/d
Perigee alt
353.6 km
Apogee alt
359.2 km
Semi-major
6,734.5 km
B*
1.3595e-3
RAAN
125.9492°
Arg perigee
354.2656°
Mean anomaly
5.8163°
Rev number
10,011

§ Raw data

STARLINK-11497 [DTC]1 62470U 24254J   26263.97545729  .00178092  00000+0  13595-2 0  99942 62470  43.0004 125.9492 0004170 354.2656   5.8163 15.70874141100111

JSON: /api/v1/satellites/62470 · /tle

For live sub-satellite position, see the globe view (requires WebGL).

§ Visibility from observer

Set your observer location to see the next 7 days of passes ≥ 10°. The values pass through the URL so the page stays shareable.

No JS? Fill the form by hand. The geolocation button needs JavaScript.